Weather in Hilden

Germany     51°10′10″N   6°55′51″E
temp.,
°C
wind,
m/s
gust,
m/s
humid.,
%
clouds,
%
prec.,
mm/h
press.,
hPa
HPBL,
m
15 june, tue
tue1523:00+20nne226587 0.0 101845
02:00+17nne3686100 0.0 1019174
05:00+16nne2693100 0.0 1019198
08:00+17ne358198 0.0 1020317
11:00+22nne3454100 0.0 1020907
14:00+25nne424499 0.0 10191447
17:00+25nne3343100 0.0 10191390
20:00+22ne455385 0.0 1018818
16 june, wed
wed1623:00+17ene387498 0.0 1018255
02:00+16e237996 0.0 101865
05:00+16e228343 0.0 101737
08:00+20ese246828 0.0 1015277
11:00+26sse3452100 0.0 10141101
14:00+30ssw353659 0.0 10122512
17:00+30wsw233999 0.0 10111571
20:00+26ne3555100 0.0 1012327
17 june, thu
thu1723:00+22e226596 0.0 101139
02:00+22se396590 0.0 1012266
05:00+20se277576 0.0 1011149
08:00+24se410585 0.0 1011414
11:00+29sse5743100 0.0 1011895
14:00+32sse5835100 0.0 10102300
17:00+31sw574146 0.0 10101827
20:00+28w4554100 0.0 1010800
18 june, fri
fri1823:00+23wnw257274 0.0 1012218
02:00+20ne249210 0.0 1012141
05:00+19nne009715 1.0 101327
08:00+20nnw119391 2.4 1013286
11:00+25ne216662 0.0 1013688
14:00+25ese1265100 0.1 1013596
17:00+30sse463942 0.1 10121907
20:00+26sw4105289 0.3 10121127
19 june, sat
sat1923:00+21s228899 2.1 101451
02:00+19sse2694100 2.9 1013158
05:00+18s399191 0.0 1014279
08:00+20s47730 0.0 1014587
11:00+25sw46444 0.0 10141244
14:00+29wsw463525 0.0 10131865
17:00+30w363338 0.0 10112148
20:00+26nne1255100 0.1 101059